Home > Weather > Gonda > Past weeks

Flag for India Past Weather in Gonda, Uttar Pradesh, India — Yesterday and Last 2 Weeks

Now
79 °F

Broken clouds.


Feels Like: 82 °F
Forecast: 79 / 102 °F
Wind: 6 mph from East

Location: Lucknow / Amausi

Current Time: May 30, 2016 at 6:53:31 AM

Latest Report: May 30, 2016 at 6:00 AM


Visibility: 2 mi

Pressure: 29.59 "Hg

Humidity: 89%

Dew Point: 75 °F

Location of GondaLocation

Past Weather in Gonda — Graph

°F

Gonda Temperature Yesterday

Maximum temperature yesterday: 93 °F (at 1:30 PM)
Minimum temperature yesterday: 72 °F (at 3:00 AM)
Average temperature yesterday: 84 °F

High & Low Weather Summary for the Past Weeks

 TemperatureHumidityPressure
High115 °F (May 16, 1:30 PM)100% (May 22, 9:00 AM)29.77 "Hg (May 22, 9:00 AM)
Low72 °F (May 29, 3:00 AM)12% (May 16, 5:00 PM)29.39 "Hg (May 17, 6:30 PM)
Average94 °F51%29.51 "Hg
* Reported May 15 5:30 AM — May 30 5:30 AM, Gonda, Weather by CustomWeather, © 2016

Note: Actual official high and low records may vary slightly from our data, if they occured in-between our weather recording intervals... More about our weather records

Advertising

Gonda Weather History for the Previous 24 Hours

Scroll right to see more
 ConditionsComfort  
Time TempWeatherWind HumidityBarometerVisibility
5:30 AM
Mon, May 30
79 °FPartly cloudy.5 mph89%29.59 "Hg2 mi
5:00 AM81 °FPartly cloudy.2 mph84%29.59 "Hg2 mi
4:00 AM81 °FLight rain. Partly cloudy.3 mph84%29.56 "Hg2 mi
2:00 AM81 °FThundershowers. Partly cloudy.6 mph79%29.56 "Hg2 mi
12:00 AM82 °FPassing clouds.6 mph74%29.59 "Hg2 mi
11:00 PM
Sun, May 29
82 °FPassing clouds.2 mph74%29.62 "Hg2 mi
10:00 PM82 °FPassing clouds.2 mph74%29.59 "Hg2 mi
9:00 PM84 °FPassing clouds.3 mph70%29.59 "Hg2 mi
8:30 PM84 °FPassing clouds.3 mph70%29.56 "Hg2 mi
8:00 PM86 °FPassing clouds.5 mph66%29.56 "Hg2 mi
7:30 PM86 °FHaze.5 mph66%29.56 "Hg3 mi
7:00 PM88 °FHaze.9 mph62%29.53 "Hg3 mi
6:30 PM88 °FHaze.6 mph62%29.53 "Hg3 mi
6:00 PM91 °FHaze.6 mph59%29.53 "Hg3 mi
5:30 PM91 °FScattered clouds.9 mph59%29.56 "Hg3 mi
5:00 PM91 °FScattered clouds.5 mph56%29.56 "Hg3 mi
4:30 PM91 °FScattered clouds.6 mph56%29.56 "Hg3 mi
4:00 PM93 °FBroken clouds.6 mph53%29.59 "Hg3 mi
3:30 PM91 °FBroken clouds.6 mph59%29.59 "Hg3 mi
3:00 PM91 °FBroken clouds.2 mph52%29.59 "Hg3 mi
2:30 PM91 °FBroken clouds.7 mph56%29.62 "Hg3 mi
2:00 PM91 °FBroken clouds.7 mph49%29.65 "Hg3 mi
1:30 PM93 °FBroken clouds.7 mph49%29.65 "Hg3 mi
1:00 PM91 °FScattered clouds.5 mph52%29.65 "Hg3 mi
12:30 PM90 °FScattered clouds.2 mph55%29.65 "Hg3 mi
12:00 PM90 °FScattered clouds.2 mph55%29.68 "Hg3 mi
11:30 AM88 °FScattered clouds.6 mph62%29.65 "Hg3 mi
11:00 AM86 °FScattered clouds.6 mph66%29.65 "Hg3 mi
10:30 AM86 °FScattered clouds.5 mph55%29.65 "Hg3 mi
10:00 AM84 °FScattered clouds.2 mph70%29.68 "Hg3 mi
9:30 AM82 °FBroken clouds.2 mph70%29.65 "Hg3 mi
9:00 AM81 °FBroken clouds.2 mph74%29.62 "Hg2 mi
8:30 AM77 °FBroken clouds.2 mph79%29.62 "Hg2 mi
8:00 AM75 °FBroken clouds.3 mph83%29.59 "Hg2 mi
7:30 AM75 °FBroken clouds.6 mph83%29.56 "Hg2 mi
7:00 AM73 °FBroken clouds.14 mph89%29.56 "Hg2 mi
6:30 AM73 °FLight rain. Broken clouds.14 mph89%29.56 "Hg1 mi
6:00 AM73 °FLight rain. Broken clouds.9 mph89%29.65 "Hg1 mi
Weather by CustomWeather, © 2016

See weather overviewHow to use our weather pages